NETSAT-3

Last updated on Mon Sep 21 2026 00:03:44 GMT+0000 (Coordinated Universal Time)

1 46505U 20068V 26262.99841140 .00014028 00000+0 29255-3 0 9990 2 46505 97.8671 277.1900 0004847 22.5096 337.6364 15.45678643330314
UTC large
Height (km)
Speed (km/s)
/
Latitude / Longitude
Inclination (degrees)
Orbital Period (minutes)
Azimuth
Elevation
Range (km)
Doppler Factor

Next 0 passes for location: London (51.5072 / 0.1276)

No passes found over London.
NETSAT-3